[[{"header":{"parameterUnit":"m.s-1","parameterCategory":1,"la1":30.2991,"la2":30.254,"lo1":-89.0895,"lo2":-89.0444,"dy":0.0017,"dx":0.0017,"nx":28,"ny":28,"refTime":"2024-10-15T03:00:00:Z","depth":0,"parameterNumber":2,"parameterNumberName":"U-component_of_WINDS"},"data":[0,0,0,0,0,0,0,0,0,0,0,0,0,0,0,0,0,0,0,0,0,0,0,0,0,0,0,0,0,0,0,0,0,0,0,0,0,0,0,0,0,0,0,0,0,0,0,0,0,0,0,0,0,0,0,0,0,0,0.5194,0.5194,0,0.528,0.5281,0.5282,0.533,0.533,0.533,0.533,0.5422,0.5425,0.5427,0,0,0,0,0,0,0,0,0,0,0,0,0,0.5076,0.5077,0.5193,0.5195,0.5196,0.528,0.5281,0.5282,0.533,0.533,0.533,0.5331,0.5422,0.5424,0.5427,0,0,0,0,0,0,0,0,0,0,0,0,0,0.5141,0.5078,0.5193,0.523,0.5234,0.528,0.5281,0.5283,0.533,0.533,0.533,0.5331,0.5421,0.5424,0.5427,0.5445,0,0,0.5438,0.544,0,0,0,0,0,0,0,0,0.5137,0.5145,0.5223,0.5227,0.5232,0.5294,0.5273,0.5337,0.533,0.5294,0.5331,0.5331,0.538,0.5387,0.5403,0.5449,0.5453,0.5438,0.5441,0.5442,0.5443,0,0,0,0,0,0,0,0.5133,0.5142,0.5228,0.5224,0.523,0.5244,0.5253,0.5286,0.5335,0.5297,0.53,0.531,0.5382,0.5399,0.5405,0.5455,0.5438,0.5441,0.5444,0.5445,0.5525,0.5525,0,0,0,0,0,0,0.5122,0.5138,0.5225,0.523,0.5184,0.5245,0.5256,0.5274,0.5334,0.5344,0.531,0.5312,0.5393,0.5401,0.5409,0.5436,0.5442,0.5445,0.5447,0.5525,0.5525,0.5526,0,0,0,0,0,0,0.5119,0.5129,0.5222,0.5185,0.5198,0.5247,0.5267,0.5276,0.5293,0.5344,0.5354,0.5317,0.5394,0.5404,0.5437,0.544,0.5447,0.545,0.5525,0.5525,0.5525,0.5489,0,0,0,0,0,0,0.5115,0.5128,0.5133,0.5185,0.52,0.5246,0.5267,0.5277,0.5298,0.5302,0.5354,0.5363,0.5394,0.5431,0.544,0.5445,0.5453,0.5525,0.5525,0.5525,0.549,0.5488,0.5486,0,0,0,0,0,0.5111,0.5119,0.5133,0.5143,0.5207,0.5246,0.5255,0.529,0.5298,0.5305,0.5339,0.5361,0.5438,0.5434,0.5444,0.545,0.5525,0.5525,0.5525,0.5491,0.5488,0.5486,0,0,0,0,0,0,0.5066,0.5126,0.5142,0.5167,0.5201,0.5254,0.5264,0.5285,0.5318,0.532,0.5364,0.5376,0.5405,0.5431,0.5426,0.5473,0.5484,0.5486,0.5455,0.5452,0.545,0.5444,0.5456,0,0,0,0,0,0.5059,0.5084,0.5136,0.5153,0.5169,0.5214,0.5232,0.5256,0.5294,0.5308,0.5344,0.5381,0.5414,0.5435,0.5467,0.5495,0.5509,0.5504,0.5502,0.55,0.5501,0.5522,0.5521,0.5526,0.5526,0.5526,0,0,0.5045,0.5081,0.5094,0.5145,0.5174,0.5201,0.5225,0.5252,0.5273,0.5313,0.5346,0.5375,0.5419,0.545,0.5465,0.5472,0.5504,0.55,0.5498,0.5501,0.5522,0.5521,0.5521,0.5526,0.5526,0.5526,0,0,0.5033,0.5062,0.5081,0.511,0.5154,0.5184,0.5189,0.5239,0.526,0.5294,0.5326,0.5353,0.5407,0.5439,0.5462,0.5467,0.5489,0.5476,0.5465,0.5484,0.5484,0.5484,0.5488,0.5489,0.5478,0.5478,0.5477,0,0.501,0.505,0.5088,0.5114,0.5137,0.5174,0.5196,0.5223,0.5276,0.5292,0.5299,0.5371,0.5403,0.5444,0.5446,0.5462,0.5471,0.547,0.5481,0.5481,0.5482,0.5486,0.5487,0.5476,0.5476,0.5476,0.5476,0,0.5021,0.5049,0.506,0.511,0.5134,0.5158,0.5201,0.5222,0.5246,0.5276,0.5313,0.5354,0.5397,0.5409,0.5431,0.5454,0.5457,0.5472,0.5484,0.5479,0.5484,0.5486,0.5473,0.5474,0.5474,0.5475,0,0,0.4981,0.5054,0.5058,0.5083,0.5136,0.516,0.5187,0.5229,0.5247,0.5284,0.5309,0.5357,0.5372,0.5398,0.5426,0.5442,0.5448,0.5456,0.5458,0.5455,0.5479,0.5468,0.5469,0.5463,0.5464,0.5464,0.5476,0,0.4978,0.5026,0.5063,0.5098,0.5127,0.5165,0.519,0.5226,0.5257,0.5287,0.5321,0.5355,0.5371,0.5388,0.5406,0.5443,0.5453,0.5443,0.549,0.5491,0.5478,0.5472,0.546,0.5468,0.5478,0.5478,0.5478,0,0.498,0.5016,0.5054,0.5108,0.5121,0.5142,0.5186,0.5213,0.5258,0.5279,0.531,0.534,0.5373,0.5383,0.5432,0.5424,0.5446,0.5468,0.5469,0.5475,0.5485,0.5479,0.5472,0.5474,0.5482,0.5481,0.5481,0,0.4949,0.5007,0.5038,0.5058,0.5122,0.5136,0.5163,0.5208,0.5232,0.5272,0.5289,0.5331,0.5355,0.5389,0.543,0.5433,0.5476,0.5488,0.5497,0.5496,0.5504,0.5503,0.5501,0.5516,0.5516,0.5516,0.5516,0,0.4942,0.4965,0.5026,0.5045,0.5073,0.5117,0.5144,0.5175,0.5215,0.5243,0.5279,0.5306,0.5358,0.5392,0.5424,0.5462,0.5472,0.5492,0.5501,0.5489,0.5487,0.5505,0.5506,0.5517,0.5516,0.5516,0.5516,0,0.4912,0.4954,0.4991,0.5049,0.5064,0.5082,0.5133,0.5155,0.5189,0.5224,0.5235,0.5288,0.533,0.5375,0.5432,0.5454,0.5491,0.5502,0.5476,0.5481,0.5488,0.5487,0.5498,0.5503,0.5513,0.5512,0.5512,0,0.4905,0.4924,0.4984,0.5006,0.5032,0.5065,0.5091,0.5137,0.5162,0.5217,0.5233,0.5278,0.5316,0.5382,0.5427,0.5472,0.5485,0.5486,0.5492,0.5482,0.5488,0.5487,0.5491,0.5484,0.5484,0.5484,0.5483,0,0.4889,0.491,0.4945,0.4988,0.5018,0.5054,0.5092,0.5108,0.5162,0.5189,0.5233,0.5262,0.5322,0.5367,0.5418,0.5449,0.5477,0.5481,0.5486,0.5475,0.546,0.5471,0.5472,0.5481,0.5481,0.5481,0.5481,0.5481,0.4872,0.4892,0.4938,0.4977,0.5011,0.5047,0.5071,0.5109,0.5145,0.5196,0.5222,0.5266,0.5315,0.5386,0.5417,0.5454,0.5462,0.5468,0.547,0.5471,0.547,0.5453,0.5464,0.5464,0.5464,0.5464,0.5464,0,0.486,0.4893,0.4928,0.4981,0.5012,0.5035,0.5079,0.5105,0.5143,0.5186,0.5223,0.5275,0.532,0.537,0.5419,0.544,0.5454,0.5451,0.5451,0.5458,0.5458,0.545,0.5439,0.5439,0.5439,0.5439,0.5439,0.5439,0.4857,0.4892,0.4919,0.4974,0.5007,0.505,0.5074,0.5108,0.5143,0.5199,0.5237,0.5269,0.5316,0.5369,0.5413,0.5427,0.5445,0.5439,0.5456,0.5456,0.5458,0.5459,0.5452,0.5442,0.5442,0.5453,0.5453,0.5453]},{"header":{"parameterUnit":"m.s-1","parameterCategory":1,"la1":30.2991,"la2":30.254,"lo1":-89.0895,"lo2":-89.0444,"dy":0.0017,"dx":0.0017,"nx":28,"ny":28,"refTime":"2024-10-15T03:00:00:Z","depth":0,"parameterNumber":3,"parameterNumberName":"V-component_of_WINDS"},"data":[0,0,0,0,0,0,0,0,0,0,0,0,0,0,0,0,0,0,0,0,0,0,0,0,0,0,0,0,0,0,0,0,0,0,0,0,0,0,0,0,0,0,0,0,0,0,0,0,0,0,0,0,0,0,0,0,0,0,-0.5666,-0.5667,0,-0.5798,-0.58,-0.5801,-0.5891,-0.5891,-0.5892,-0.5892,-0.6026,-0.6029,-0.6032,0,0,0,0,0,0,0,0,0,0,0,0,0,-0.5489,-0.5492,-0.5665,-0.5667,-0.5669,-0.5798,-0.58,-0.5802,-0.5891,-0.5891,-0.5892,-0.5893,-0.6025,-0.6029,-0.6032,0,0,0,0,0,0,0,0,0,0,0,0,0,-0.5588,-0.5493,-0.5665,-0.5729,-0.5736,-0.5798,-0.58,-0.5802,-0.589,-0.5891,-0.5892,-0.5893,-0.6024,-0.6028,-0.6033,-0.6041,0,0,-0.6046,-0.6048,0,0,0,0,0,0,0,0,-0.5582,-0.5595,-0.5718,-0.5724,-0.5732,-0.5829,-0.5787,-0.5882,-0.589,-0.5832,-0.5892,-0.5894,-0.596,-0.5969,-0.5992,-0.6047,-0.6053,-0.6047,-0.6049,-0.6051,-0.6052,0,0,0,0,0,0,0,-0.5575,-0.5589,-0.5718,-0.5719,-0.5728,-0.5751,-0.5766,-0.5805,-0.5888,-0.5837,-0.5844,-0.5858,-0.5964,-0.5988,-0.5996,-0.6055,-0.6046,-0.605,-0.6053,-0.6055,-0.613,-0.6129,0,0,0,0,0,0,-0.5559,-0.5583,-0.5714,-0.5722,-0.5658,-0.5753,-0.577,-0.5797,-0.5888,-0.5903,-0.5857,-0.5862,-0.598,-0.5991,-0.6001,-0.6021,-0.6051,-0.6055,-0.6058,-0.613,-0.6129,-0.6129,0,0,0,0,0,0,-0.5555,-0.557,-0.5708,-0.5655,-0.5674,-0.5755,-0.5785,-0.5799,-0.5823,-0.5904,-0.5919,-0.5866,-0.5981,-0.5995,-0.6032,-0.6027,-0.6057,-0.6061,-0.6131,-0.613,-0.6129,-0.6058,0,0,0,0,0,0,-0.5549,-0.5567,-0.5571,-0.5654,-0.5676,-0.5737,-0.5784,-0.5801,-0.5831,-0.5838,-0.5917,-0.593,-0.5982,-0.6025,-0.6036,-0.6033,-0.6065,-0.6132,-0.6131,-0.6129,-0.6061,-0.6055,-0.6049,0,0,0,0,0,-0.5543,-0.5544,-0.5571,-0.5586,-0.5683,-0.5736,-0.5749,-0.581,-0.583,-0.5835,-0.5888,-0.5928,-0.6025,-0.6028,-0.6042,-0.604,-0.6133,-0.6131,-0.613,-0.6064,-0.6056,-0.6049,0,0,0,0,0,0,-0.5457,-0.5556,-0.5587,-0.5615,-0.5667,-0.5751,-0.5759,-0.5799,-0.5845,-0.5849,-0.5922,-0.5939,-0.597,-0.6008,-0.601,-0.6056,-0.6084,-0.6085,-0.6029,-0.6022,-0.6016,-0.6007,-0.6069,0,0,0,0,0,-0.5441,-0.5477,-0.5561,-0.5578,-0.5603,-0.5676,-0.5702,-0.5745,-0.5801,-0.5822,-0.5878,-0.593,-0.5973,-0.6,-0.6043,-0.6067,-0.6087,-0.6073,-0.6067,-0.6061,-0.6062,-0.6082,-0.6077,-0.6124,-0.6124,-0.6124,0,0,-0.5409,-0.5468,-0.5485,-0.5563,-0.5608,-0.5644,-0.5694,-0.5728,-0.5757,-0.5827,-0.5868,-0.591,-0.5973,-0.6005,-0.6022,-0.6038,-0.6054,-0.6059,-0.6054,-0.6058,-0.608,-0.6075,-0.6071,-0.6123,-0.6123,-0.6123,0,0,-0.537,-0.5417,-0.5439,-0.5484,-0.5552,-0.5602,-0.5607,-0.5686,-0.5718,-0.5759,-0.5815,-0.5849,-0.592,-0.5965,-0.5996,-0.5978,-0.6018,-0.599,-0.5959,-0.5977,-0.5974,-0.5971,-0.5968,-0.5965,-0.599,-0.599,-0.599,0,-0.5322,-0.5379,-0.5444,-0.5478,-0.5511,-0.5579,-0.5603,-0.5643,-0.5721,-0.5743,-0.5761,-0.5855,-0.5902,-0.5947,-0.5944,-0.5966,-0.5976,-0.5982,-0.5969,-0.5967,-0.5965,-0.5963,-0.5961,-0.5987,-0.5987,-0.5987,-0.5988,0,-0.5318,-0.5356,-0.5365,-0.5442,-0.5477,-0.5504,-0.5576,-0.5603,-0.5643,-0.5691,-0.5734,-0.5794,-0.5853,-0.5866,-0.5904,-0.5918,-0.5927,-0.5955,-0.5986,-0.5956,-0.5956,-0.5955,-0.5981,-0.5983,-0.5984,-0.5985,0,0,-0.5227,-0.5343,-0.5345,-0.5383,-0.5465,-0.5497,-0.5528,-0.5588,-0.5611,-0.5663,-0.5694,-0.5755,-0.5783,-0.5819,-0.5864,-0.5879,-0.5866,-0.5907,-0.591,-0.59,-0.5889,-0.5868,-0.5866,-0.5893,-0.5893,-0.5893,-0.5884,0,-0.5203,-0.5265,-0.5327,-0.5367,-0.5406,-0.5472,-0.5501,-0.5555,-0.5601,-0.5641,-0.5692,-0.5735,-0.5768,-0.5791,-0.5809,-0.5864,-0.5865,-0.5865,-0.5923,-0.5924,-0.5907,-0.5865,-0.5843,-0.5831,-0.5884,-0.5884,-0.5884,0,-0.5182,-0.5235,-0.528,-0.5362,-0.5381,-0.5405,-0.5467,-0.5503,-0.5567,-0.56,-0.5642,-0.569,-0.5729,-0.5754,-0.581,-0.5808,-0.5836,-0.5866,-0.5867,-0.5877,-0.5903,-0.5875,-0.5829,-0.5828,-0.5884,-0.5884,-0.5884,0,-0.5116,-0.5197,-0.5236,-0.5266,-0.5362,-0.5378,-0.5419,-0.5484,-0.5517,-0.557,-0.5593,-0.5649,-0.5681,-0.5724,-0.5786,-0.5798,-0.5837,-0.5866,-0.5866,-0.5865,-0.5872,-0.5871,-0.5832,-0.5886,-0.5886,-0.5886,-0.5886,0,-0.5084,-0.5109,-0.5208,-0.5232,-0.5264,-0.5335,-0.5364,-0.5411,-0.5469,-0.5504,-0.5564,-0.5595,-0.5675,-0.5716,-0.5765,-0.5806,-0.5819,-0.5848,-0.5861,-0.5844,-0.584,-0.5864,-0.5867,-0.5886,-0.5886,-0.5886,-0.5886,0,-0.5015,-0.5082,-0.5129,-0.5218,-0.5241,-0.5261,-0.5337,-0.5363,-0.5414,-0.5458,-0.5472,-0.5552,-0.5604,-0.5671,-0.5743,-0.5776,-0.5812,-0.5831,-0.5791,-0.5799,-0.5797,-0.5797,-0.5773,-0.5775,-0.5825,-0.5824,-0.5823,0,-0.4991,-0.5013,-0.5105,-0.5134,-0.5174,-0.5218,-0.5253,-0.5325,-0.5359,-0.5435,-0.5453,-0.551,-0.556,-0.5641,-0.5705,-0.5762,-0.5784,-0.5772,-0.5792,-0.5776,-0.5787,-0.5786,-0.579,-0.5766,-0.5765,-0.5765,-0.5764,0,-0.4943,-0.4976,-0.5025,-0.5086,-0.5127,-0.5178,-0.5232,-0.5251,-0.5335,-0.537,-0.5426,-0.5464,-0.554,-0.5597,-0.5663,-0.5706,-0.5749,-0.5757,-0.5761,-0.5744,-0.5722,-0.5737,-0.5779,-0.5757,-0.5758,-0.5759,-0.5759,-0.5759,-0.4898,-0.4923,-0.4992,-0.5046,-0.5094,-0.5144,-0.5175,-0.5231,-0.5278,-0.5347,-0.5386,-0.5441,-0.5507,-0.56,-0.5641,-0.5686,-0.5702,-0.5706,-0.5708,-0.5708,-0.5704,-0.5713,-0.5698,-0.5698,-0.5698,-0.5698,-0.5699,0,-0.4856,-0.4905,-0.4953,-0.5028,-0.5071,-0.5109,-0.5172,-0.5205,-0.5253,-0.5311,-0.536,-0.5426,-0.5482,-0.5552,-0.5613,-0.5635,-0.5657,-0.5649,-0.5649,-0.5659,-0.5685,-0.5677,-0.5631,-0.5631,-0.5631,-0.5631,-0.5631,-0.5631,-0.4839,-0.4883,-0.4925,-0.4995,-0.5044,-0.5099,-0.5132,-0.5179,-0.5227,-0.5297,-0.5345,-0.5391,-0.5455,-0.5522,-0.5576,-0.5595,-0.5616,-0.5603,-0.5628,-0.5651,-0.5657,-0.5662,-0.5656,-0.5606,-0.5606,-0.5599,-0.5599,-0.5599]}]]